| time (UTC) | temp F | wind direction | speed MPH | gust MPH | rain 1hr in | rain 24hr in | rain mn in | humidity % | barometer mb |
| 20260506201533 | 40 | 350 | 2.0 | 12.0 | 0.01 | 0.44 | 0.44 | 88 | 1012.9 |
| 20260506194527 | 40 | 283 | 3.0 | 7.0 | 0.02 | 0.45 | 0.44 | 90 | 1012.6 |
| 20260506193017 | 40 | 269 | 3.0 | 7.0 | 0.04 | 0.45 | 0.44 | 89 | 1012.5 |
| 20260506190028 | 40 | 250 | 6.0 | 12.0 | 0.05 | 0.44 | 0.43 | 88 | 1012.0 |
| 20260506183022 | 41 | 59 | 1.0 | 6.0 | 0.02 | 0.41 | 0.40 | 87 | 1011.8 |
| 20260506180028 | 42 | 18 | 2.0 | 7.0 | 0.00 | 0.39 | 0.39 | 89 | 1011.9 |
| 20260506174521 | 42 | 339 | 4.0 | 8.0 | 0.00 | 0.39 | 0.39 | 89 | 1011.9 |
| 20260506171528 | 42 | 313 | 1.0 | 8.0 | 0.00 | 0.39 | 0.39 | 84 | 1011.5 |
| 20260506170027 | 42 | 130 | 3.0 | 10.0 | 0.00 | 0.39 | 0.39 | 84 | 1011.3 |
| 20260506163035 | 42 | 95 | 1.0 | 6.0 | 0.00 | 0.42 | 0.39 | 88 | 1011.2 |
| 20260506160025 | 42 | 31 | 1.0 | 9.0 | 0.00 | 0.42 | 0.39 | 91 | 1011.4 |
| 20260506153040 | 42 | 46 | 1.0 | 5.0 | 0.00 | 0.43 | 0.39 | 91 | 1011.2 |
| 20260506151533 | 42 | 318 | 1.0 | 10.0 | 0.00 | 0.43 | 0.39 | 92 | 1011.3 |
| 20260506144530 | 42 | 281 | 1.0 | 10.0 | 0.02 | 0.43 | 0.39 | 94 | 1011.4 |
| 20260506141529 | 40 | 66 | 2.0 | 6.0 | 0.06 | 0.43 | 0.39 | 94 | 1011.4 |
| 20260506140040 | 39 | 163 | 2.0 | 10.0 | 0.05 | 0.42 | 0.38 | 93 | 1011.8 |
| 20260506134524 | 39 | 87 | 3.0 | 13.0 | 0.03 | 0.43 | 0.36 | 93 | 1011.9 |
| 20260506131529 | 41 | 164 | 2.0 | 5.0 | 0.02 | 0.39 | 0.33 | 94 | 1012.0 |
| 20260506124526 | 42 | 257 | 2.0 | 12.0 | 0.04 | 0.42 | 0.32 | 94 | 1011.9 |
| 20260506121529 | 42 | 29 | 3.0 | 13.0 | 0.04 | 0.40 | 0.31 | 94 | 1011.7 |
| 20260506120026 | 42 | 360 | 2.0 | 14.0 | 0.03 | 0.39 | 0.31 | 94 | 1011.7 |
| 20260506113032 | 42 | 247 | 7.0 | 13.0 | 0.03 | 0.41 | 0.28 | 94 | 1011.8 |
| 20260506110034 | 41 | 90 | 4.0 | 10.0 | 0.03 | 0.40 | 0.28 | 94 | 1012.2 |
| 20260506104554 | 41 | 136 | 4.0 | 11.0 | 0.02 | 0.57 | 0.27 | 94 | 1012.5 |
| 20260506103028 | 41 | 287 | 6.0 | 10.0 | 0.02 | 0.56 | 0.25 | 94 | 1012.7 |
| 20260506101525 | 40 | 248 | 4.0 | 12.0 | 0.02 | 0.55 | 0.24 | 94 | 1012.3 |
| 20260506094529 | 40 | 317 | 3.0 | 14.0 | 0.02 | 0.66 | 0.24 | 93 | 1012.5 |
| 20260506091527 | 38 | 107 | 5.0 | 11.0 | 0.01 | 0.65 | 0.23 | 93 | 1012.5 |
| 20260506084523 | 39 | 227 | 3.0 | 11.0 | 0.02 | 0.67 | 0.23 | 93 | 1012.3 |
| 20260506081526 | 39 | 36 | 2.0 | 10.0 | 0.03 | 0.66 | 0.22 | 93 | 1012.5 |
| 20260506071530 | 38 | 298 | 0.0 | 5.0 | 0.09 | 0.65 | 0.19 | 93 | 1012.3 |
| 20260506043028 | 36 | 337 | 0.0 | 0.0 | 0.00 | 0.46 | 0.00 | 93 | 1012.1 |
| 20260506040037 | 38 | 28 | 0.0 | 4.0 | 0.00 | 0.46 | 0.00 | 94 | 1012.1 |
| 20260506034526 | 39 | 26 | 2.0 | 6.0 | 0.00 | 0.46 | 0.00 | 94 | 1012.3 |
| 20260506031528 | 39 | 30 | 1.0 | 5.0 | 0.00 | 0.46 | 0.00 | 94 | 1013.0 |
| 20260506024530 | 39 | 49 | 2.0 | 7.0 | 0.00 | 0.46 | 0.00 | 94 | 1013.4 |
| 20260506023024 | 38 | 74 | 4.0 | 6.0 | 0.00 | 0.46 | 0.00 | 94 | 1013.2 |
| 20260506020028 | 35 | 188 | 0.0 | 0.0 | 0.00 | 0.46 | 0.00 | 93 | 1013.4 |
| 20260506014525 | 36 | 188 | 0.0 | 0.0 | 0.00 | 0.46 | 0.00 | 93 | 1013.4 |
| 20260506013020 | 35 | 188 | 0.0 | 0.0 | 0.00 | 0.46 | 0.00 | 93 | 1013.6 |
| 20260506010030 | 34 | 188 | 0.0 | 4.0 | 0.00 | 0.46 | 0.00 | 93 | 1013.8 |
| 20260506003041 | 34 | 188 | 0.0 | 0.0 | 0.00 | 0.46 | 0.00 | 93 | 1013.9 |
| 20260506001530 | 35 | 188 | 0.0 | 0.0 | 0.00 | 0.46 | 0.00 | 93 | 1014.1 |
| 20260505234539 | 38 | 188 | 0.0 | 0.0 | 0.00 | 0.46 | 0.00 | 93 | 1014.1 |
| 20260505233023 | 37 | 188 | 0.0 | 2.0 | 0.00 | 0.46 | 0.00 | 93 | 1014.4 |
| 20260505230036 | 38 | 188 | 0.0 | 2.0 | 0.00 | 0.46 | 0.00 | 93 | 1014.4 |
| 20260505224524 | 38 | 188 | 0.0 | 0.0 | 0.00 | 0.46 | 0.00 | 93 | 1014.5 |
| 20260505223019 | 39 | 188 | 0.0 | 0.0 | 0.00 | 0.46 | 0.00 | 94 | 1014.6 |
| 20260505220048 | 38 | 188 | 0.0 | 1.0 | 0.00 | 0.46 | 0.00 | 94 | 1014.5 |
| 20260505214530 | 37 | 188 | 0.0 | 2.0 | 0.00 | 0.46 | 0.46 | 93 | 1014.8 |
| 20260505211529 | 35 | 297 | 0.0 | 1.0 | 0.00 | 0.46 | 0.46 | 92 | 1014.7 |
| 20260505204532 | 38 | 296 | 0.0 | 2.0 | 0.01 | 0.46 | 0.46 | 93 | 1014.7 |
| 20260505203020 | 39 | 296 | 0.0 | 4.0 | 0.01 | 0.46 | 0.46 | 93 | 1014.9 |